Regional Weather Roundup
Issued by NWS

Home | Current Version | Previous Version | Text Only | Print | Product List | Glossary Off
Versions: 1 2 3 4 5 6 7 8 9 10 11 12 13 14 15 16 17 18 19 20 21 22 23 24 25 26 27 28 29 30 31 32 33 34 35 36 37 38 39 40 41 42 43 44 45 46 47 48 49 50

000
ASUS43 KDMX 010503
RWRIA

WEATHER ROUNDUP FOR IOWA
NATIONAL WEATHER SERVICE DES MOINES IA
1200 AM CDT SUN MAY 01 2016

NOTE: "FAIR" INDICATES FEW OR NO CLOUDS BELOW 12,000 FEET WITH NO
SIGNIFICANT WEATHER AND/OR OBSTRUCTIONS TO VISIBILITY.

* - THESE STATIONS ARE NOT NWS STATIONS...THUS NOT UNDER NWS
QUALITY CONTROL.  THEY ALSO DO NOT REPORT WEATHER SUCH
AS PRECIPITATION OR FOG.

IAZ001>003-012>014-020>022-031>034-043>046-010600-
   NORTHWEST IOWA

CITY           SKY/WX    TMP DP  RH WIND       PRES   REMARKS
CARROLL *      CLOUDY    45  43  93 E23G29    29.94S FOG
CHEROKEE *     CLOUDY    43  41  93 NE15G25   30.00R
DENISON *      CLOUDY    45  43  93 E17G26    29.92R FOG
LE MARS *      CLOUDY    45  41  87 NE17G30   30.01R
ORANGE CITY *  CLOUDY    43  41  93 E14G24    30.01S
SHELDON *      CLOUDY    43  41  93 NE22G30   30.01S
SIOUX CITY     LGT RAIN  45  41  86 E15G28    29.98R
SPENCER        LGT RAIN  42  40  92 NE20      30.03S FOG
STORM LAKE *   CLOUDY    43  41  93 NE24G30   29.98S FOG
$$

IAZ055>058-069>071-079>083-090>094-010600-
   SOUTHWEST IOWA

CITY           SKY/WX    TMP DP  RH WIND       PRES   REMARKS
ATLANTIC *     CLOUDY    46  45  93 NE15      29.89S FOG
AUDUBON *        N/A     45  43  93 NE14      29.94R FOG
CLARINDA *       N/A    N/A N/A N/A MISG        N/A
COUNCIL BLFS * CLOUDY    48  48 100 E10G18    29.89R
CRESTON *      CLOUDY    46  46 100 E16       29.89R FOG
HARLAN  *      CLOUDY    45  45 100 NE16      29.94R FOG
LAMONI         CLOUDY    48  48 100 E6        29.88R FOG
RED OAK *      CLOUDY    50  48  93 NE8G14    29.89R
SHENANDOAH *   CLOUDY    52  52 100 E6        29.88R
$$

IAZ047>049-059>061-072>074-084-010600-
   CENTRAL IOWA

CITY           SKY/WX    TMP DP  RH WIND       PRES   REMARKS
AMES           LGT RAIN  44  43  96 NE9G21    29.96R FOG
ANKENY *       CLOUDY    45  45 100 NE12G17   29.93S FOG
BOONE *        CLOUDY    43  43 100 E15G24    29.95R FOG
CHARITON *     CLOUDY    46  46 100 NE10      29.89R FOG
DES MOINES     DRIZZLE   46  43  89 NE13      29.92R FOG
GRINNELL*      LGT RAIN  43  43 100 E16       29.93R
KNOXVILLE *    CLOUDY    45  45 100 E13       29.90S FOG
MARSHALLTOWN   CLOUDY    44  42  93 E16       29.95R FOG
NEWTON *       CLOUDY    45  45 100 E14       29.94R FOG
PELLA *        LGT RAIN  45  44  97 E7        29.94R
$$

IAZ004>006-015-016-023>025-035-036-010600-
   NORTH CENTRAL IOWA

CITY           SKY/WX    TMP DP  RH WIND       PRES   REMARKS
ALGONA *       CLOUDY    43  41  93 NE18G24   30.02R FOG
CLARION *      CLOUDY    43  43 100 NE16G23   29.99R FOG
ESTHERVILLE    CLOUDY    42  40  92 NE18      30.04S
FORT DODGE *   CLOUDY    43  39  87 NE13G21   29.98S
MASON CITY     LGT RAIN  41  40  96 NE20      30.02S FOG
FOREST CITY *  CLOUDY    41  41 100 NE12G18   30.02R FOG
WEBSTER CITY * CLOUDY    43  43 100 NE22      29.95S FOG
IOWA FALLS *   CLOUDY    45  43  93 E14G21    29.98R
$$

IAZ007>011-017>019-026>030-037>042-050>054-066-010600-
   NORTHEAST IOWA

CITY           SKY/WX    TMP DP  RH WIND       PRES   REMARKS
CEDAR RAPIDS   CLOUDY    44  44 100 E15       29.91S FOG
CHARLES CITY * CLOUDY    43  43 100 NE16      30.00S
CLINTON *      LGT RAIN  44  43  96 NE18      29.92R FOG
DECORAH *      CLOUDY    43  43 100 NE14G21   30.00S
DUBUQUE        CLOUDY    42  41  96 NE17G24   29.94F FOG
MONTICELLO *   CLOUDY    45  43  93 NE6G14    29.94R FOG
OELWEIN *      CLOUDY    43  43 100 E16G24    29.96S
WATERLOO       CLOUDY    44  41  89 NE16      29.96F
$$

IAZ064-065-067-068-078-010600-
   EAST CENTRAL IOWA

CITY           SKY/WX    TMP DP  RH WIND       PRES   REMARKS
DAVENPORT      CLOUDY    45  43  93 E13       29.92R
IOWA CITY      CLOUDY    45  43  93 NE10G20   29.93R FOG
MT. PLEASANT * CLOUDY    48  48 100 NE7       29.89S FOG
MUSCATINE *    CLOUDY    46  45  93 NE12      29.91S FOG
QUAD CITIES    CLOUDY    47  43  86 E14       29.90R
$$

IAZ062-063-075>077-085>089-095>099-010600-
   SOUTHEAST IOWA

CITY           SKY/WX    TMP DP  RH WIND       PRES   REMARKS
BURLINGTON     CLOUDY    47  47 100 NE10      29.87S FOG
FAIRFIELD *    CLOUDY    46  46 100 NE8       29.90R FOG
FORT MADISON * CLOUDY    48  48 100 NE7       29.88S FOG
KEOKUK *       CLOUDY    50  50 100 NE7       29.86S FOG
OSKALOOSA *    CLOUDY    45  44  97 E9        29.92R FOG
OTTUMWA        CLOUDY    46  45  96 NE10      29.90R FOG
WASHINGTON *   CLOUDY    46  46 100 NE15      29.91S FOG
$$

ABBREVIATIONS USED IN REMARKS
   TC - TEMPERATURES IN CELSIUS
  WCI - WIND CHILL INDEX
   HX - HEAT INDEX
  VSB - VISIBILITY
$$





USA.gov is the U.S. government's official web portal to all federal, state and local government web resources and services.